Time,TemperatureF,DewpointF,PressureIn,WindDirection,WindDirectionDegrees,WindSpeedMPH,WindSpeedGustMPH,Humidity,HourlyPrecipIn,Conditions,Clouds,dailyrainin,SoftwareType,DateUTC
2013-01-29 00:01:00,46.6,44.7,29.21,SSE,157,1.1,1.1,93,0.00,,,0.00,WUHU21623XXSP,2013-01-29 05:01:00,
2013-01-29 00:03:00,46.6,44.7,29.20,SSE,157,1.1,1.1,93,0.00,,,0.00,WUHU21623XXSP,2013-01-29 05:03:00,
2013-01-29 00:08:00,46.8,44.9,29.19,SE,135,0.0,1.1,93,0.00,,,0.00,WUHU21623XXSP,2013-01-29 05:08:00,
2013-01-29 00:13:00,46.6,44.7,29.19,SSE,157,0.0,0.0,93,0.00,,,0.00,WUHU21623XXSP,2013-01-29 05:13:00,
2013-01-29 00:18:00,46.8,44.9,29.19,SSE,157,0.0,0.0,93,0.00,,,0.00,WUHU21623XXSP,2013-01-29 05:18:00,
2013-01-29 00:23:00,46.8,44.9,29.19,SSE,157,0.0,0.0,93,0.00,,,0.00,WUHU21623XXSP,2013-01-29 05:23:00,
2013-01-29 00:28:00,46.8,44.9,29.19,South,180,0.0,2.2,93,0.00,,,0.00,WUHU21623XXSP,2013-01-29 05:28:00,
2013-01-29 00:33:00,46.8,44.9,29.18,SSE,157,0.0,2.5,93,0.00,,,0.00,WUHU21623XXSP,2013-01-29 05:33:00,
2013-01-29 00:38:00,46.8,44.9,29.19,SSE,157,0.0,2.5,93,0.00,,,0.00,WUHU21623XXSP,2013-01-29 05:38:00,
2013-01-29 00:44:00,46.9,45.0,29.18,SE,135,0.0,0.0,93,0.00,,,0.00,WUHU21623XXSP,2013-01-29 05:44:00,
2013-01-29 00:49:00,47.1,45.2,29.18,South,180,2.9,2.9,93,0.00,,,0.00,WUHU21623XXSP,2013-01-29 05:49:00,
2013-01-29 00:53:00,47.1,45.2,29.19,SSE,157,4.0,4.0,93,0.00,,,0.00,WUHU21623XXSP,2013-01-29 05:53:00,
2013-01-29 00:59:00,47.3,45.4,29.19,WSW,247,0.0,4.0,93,0.00,,,0.00,WUHU21623XXSP,2013-01-29 05:59:00,
2013-01-29 01:04:00,47.5,45.6,29.18,SSW,202,0.0,4.0,93,0.00,,,0.00,WUHU21623XXSP,2013-01-29 06:04:00,
2013-01-29 01:09:00,47.5,45.6,29.18,SSE,157,0.0,2.5,93,0.00,,,0.00,WUHU21623XXSP,2013-01-29 06:09:00,
2013-01-29 01:14:00,47.3,45.4,29.18,SSE,157,2.2,2.5,93,0.00,,,0.00,WUHU21623XXSP,2013-01-29 06:14:00,
2013-01-29 01:19:00,47.3,45.4,29.17,SSE,157,0.0,2.9,93,0.00,,,0.00,WUHU21623XXSP,2013-01-29 06:19:00,
2013-01-29 01:24:00,47.3,45.4,29.17,SSE,157,0.0,2.9,93,0.00,,,0.00,WUHU21623XXSP,2013-01-29 06:24:00,
2013-01-29 01:29:00,47.3,45.4,29.17,South,180,0.0,0.0,93,0.00,,,0.00,WUHU21623XXSP,2013-01-29 06:29:00,
2013-01-29 01:34:00,47.5,45.6,29.17,SSE,157,0.0,1.6,93,0.00,,,0.00,WUHU21623XXSP,2013-01-29 06:34:00,
2013-01-29 01:39:00,47.5,45.6,29.16,South,180,2.0,2.0,93,0.00,,,0.00,WUHU21623XXSP,2013-01-29 06:39:00,
2013-01-29 01:44:00,47.5,45.6,29.16,South,180,0.0,2.0,93,0.00,,,0.00,WUHU21623XXSP,2013-01-29 06:44:00,
2013-01-29 01:49:00,47.5,45.6,29.16,SSE,157,0.0,1.3,93,0.00,,,0.00,WUHU21623XXSP,2013-01-29 06:49:00,
2013-01-29 01:54:00,47.5,45.6,29.16,SW,225,6.7,6.7,93,0.00,,,0.00,WUHU21623XXSP,2013-01-29 06:54:00,
2013-01-29 01:59:00,47.7,45.6,29.16,SSE,157,2.0,6.7,93,0.00,,,0.00,WUHU21623XXSP,2013-01-29 06:59:00,
2013-01-29 02:04:00,48.0,46.4,29.16,SW,225,5.4,6.0,94,0.00,,,0.00,WUHU21623XXSP,2013-01-29 07:04:00,
2013-01-29 02:09:00,48.0,46.4,29.15,SE,135,0.0,6.0,94,0.00,,,0.00,WUHU21623XXSP,2013-01-29 07:09:00,
2013-01-29 02:14:00,48.2,46.6,29.16,SSE,157,0.0,0.0,94,0.00,,,0.00,WUHU21623XXSP,2013-01-29 07:14:00,
2013-01-29 02:19:00,48.2,46.6,29.15,SSW,202,3.4,3.4,94,0.00,,,0.00,WUHU21623XXSP,2013-01-29 07:19:00,
2013-01-29 02:24:00,48.2,46.6,29.16,SSE,157,0.0,3.4,94,0.00,,,0.00,WUHU21623XXSP,2013-01-29 07:24:00,
2013-01-29 02:29:00,48.4,46.7,29.15,SSE,157,0.0,0.0,94,0.00,,,0.00,WUHU21623XXSP,2013-01-29 07:29:00,
2013-01-29 02:34:00,48.4,46.7,29.16,South,180,0.0,0.0,94,0.00,,,0.00,WUHU21623XXSP,2013-01-29 07:34:00,
2013-01-29 02:39:00,48.4,46.7,29.16,SSE,157,0.0,0.0,94,0.00,,,0.00,WUHU21623XXSP,2013-01-29 07:39:00,
2013-01-29 02:44:00,48.6,46.9,29.16,SE,135,0.0,3.1,94,0.00,,,0.00,WUHU21623XXSP,2013-01-29 07:44:00,
2013-01-29 02:49:00,48.6,46.9,29.15,SSE,157,0.0,3.1,94,0.00,,,0.00,WUHU21623XXSP,2013-01-29 07:49:00,
2013-01-29 02:54:00,48.4,46.7,29.15,South,180,0.0,0.0,94,0.00,,,0.00,WUHU21623XXSP,2013-01-29 07:54:00,
2013-01-29 02:59:00,48.4,46.7,29.15,SSE,157,0.0,0.0,94,0.00,,,0.00,WUHU21623XXSP,2013-01-29 07:59:00,
2013-01-29 03:04:00,48.4,46.7,29.15,South,180,1.8,1.8,94,0.00,,,0.00,WUHU21623XXSP,2013-01-29 08:04:00,
2013-01-29 03:09:00,48.4,46.7,29.15,SSE,157,0.0,1.8,94,0.00,,,0.00,WUHU21623XXSP,2013-01-29 08:09:00,
2013-01-29 03:14:00,48.6,46.9,29.15,South,180,0.7,0.7,94,0.00,,,0.00,WUHU21623XXSP,2013-01-29 08:14:00,
2013-01-29 03:19:00,48.7,47.1,29.15,SSE,157,0.0,0.7,94,0.00,,,0.00,WUHU21623XXSP,2013-01-29 08:19:00,
2013-01-29 03:24:00,48.7,47.1,29.15,SSW,202,4.5,4.5,94,0.00,,,0.00,WUHU21623XXSP,2013-01-29 08:24:00,
2013-01-29 03:29:00,48.7,47.1,29.14,SSE,157,0.0,4.5,94,0.00,,,0.00,WUHU21623XXSP,2013-01-29 08:29:00,
2013-01-29 03:34:00,48.7,47.1,29.14,South,180,2.9,2.9,94,0.00,,,0.00,WUHU21623XXSP,2013-01-29 08:34:00,
2013-01-29 03:39:00,48.7,47.1,29.14,SE,135,0.0,2.9,94,0.00,,,0.00,WUHU21623XXSP,2013-01-29 08:39:00,
2013-01-29 03:44:00,48.7,47.1,29.14,SE,135,0.0,2.5,94,0.00,,,0.00,WUHU21623XXSP,2013-01-29 08:44:00,
2013-01-29 03:49:00,48.7,47.1,29.14,South,180,1.8,2.5,94,0.00,,,0.00,WUHU21623XXSP,2013-01-29 08:49:00,
2013-01-29 03:54:00,48.9,47.2,29.13,SSE,157,0.0,1.8,94,0.00,,,0.00,WUHU21623XXSP,2013-01-29 08:54:00,
2013-01-29 03:59:00,48.9,47.2,29.12,SSE,157,0.0,2.0,94,0.00,,,0.00,WUHU21623XXSP,2013-01-29 08:59:00,
2013-01-29 04:05:00,49.3,47.4,29.12,South,180,3.8,3.8,94,0.00,,,0.00,WUHU21623XXSP,2013-01-29 09:05:00,
2013-01-29 04:10:00,49.6,47.9,29.12,SSW,202,7.2,7.2,94,0.00,,,0.00,WUHU21623XXSP,2013-01-29 09:10:00,
2013-01-29 04:15:00,50.2,48.1,29.12,South,180,0.0,7.2,94,0.00,,,0.00,WUHU21623XXSP,2013-01-29 09:15:00,
2013-01-29 04:20:00,50.4,48.5,29.12,South,180,9.6,9.6,94,0.00,,,0.00,WUHU21623XXSP,2013-01-29 09:20:00,
2013-01-29 04:25:00,50.5,48.8,29.11,South,180,5.4,9.6,94,0.00,,,0.00,WUHU21623XXSP,2013-01-29 09:25:00,
2013-01-29 04:30:00,50.7,49.0,29.12,SSW,202,2.9,5.4,94,0.00,,,0.00,WUHU21623XXSP,2013-01-29 09:30:00,
2013-01-29 04:35:00,50.7,49.0,29.12,South,180,1.8,5.4,94,0.00,,,0.00,WUHU21623XXSP,2013-01-29 09:35:00,
2013-01-29 04:40:00,50.7,49.0,29.11,SSE,157,1.6,1.8,94,0.00,,,0.00,WUHU21623XXSP,2013-01-29 09:40:00,
2013-01-29 04:45:00,50.7,49.0,29.11,SW,225,2.5,2.5,94,0.00,,,0.00,WUHU21623XXSP,2013-01-29 09:45:00,
2013-01-29 04:50:00,50.7,49.0,29.11,South,180,1.6,3.8,94,0.00,,,0.00,WUHU21623XXSP,2013-01-29 09:50:00,
2013-01-29 04:55:00,50.7,49.0,29.11,SW,225,3.1,5.6,94,0.00,,,0.00,WUHU21623XXSP,2013-01-29 09:55:00,
2013-01-29 05:00:00,50.7,49.0,29.11,SW,225,5.6,5.6,94,0.00,,,0.00,WUHU21623XXSP,2013-01-29 10:00:00,
2013-01-29 05:05:00,50.9,49.0,29.10,SW,225,6.3,6.3,94,0.00,,,0.00,WUHU21623XXSP,2013-01-29 10:05:00,
2013-01-29 05:10:00,50.7,49.0,29.09,South,180,5.1,6.3,94,0.00,,,0.00,WUHU21623XXSP,2013-01-29 10:10:00,
2013-01-29 05:15:00,50.7,49.0,29.10,South,180,13.6,13.6,94,0.00,,,0.00,WUHU21623XXSP,2013-01-29 10:15:00,
2013-01-29 05:20:00,50.7,49.0,29.09,South,180,4.3,13.6,94,0.00,,,0.00,WUHU21623XXSP,2013-01-29 10:20:00,
2013-01-29 05:25:00,50.7,49.0,29.09,SSW,202,2.0,8.9,94,0.00,,,0.00,WUHU21623XXSP,2013-01-29 10:25:00,
2013-01-29 05:30:00,50.7,49.0,29.09,SSW,202,14.1,14.1,94,0.00,,,0.00,WUHU21623XXSP,2013-01-29 10:30:00,
2013-01-29 05:35:00,50.7,49.0,29.10,SSW,202,8.9,14.1,94,0.00,,,0.00,WUHU21623XXSP,2013-01-29 10:35:00,
2013-01-29 05:40:00,50.7,49.0,29.09,SW,225,8.7,8.9,94,0.00,,,0.00,WUHU21623XXSP,2013-01-29 10:40:00,
2013-01-29 05:45:00,50.7,49.0,29.10,SW,225,11.4,11.4,94,0.00,,,0.00,WUHU21623XXSP,2013-01-29 10:45:00,
2013-01-29 05:50:00,50.7,49.0,29.10,South,180,6.9,11.4,94,0.00,,,0.00,WUHU21623XXSP,2013-01-29 10:50:00,
2013-01-29 05:55:00,50.7,49.0,29.10,SSE,157,5.6,10.5,94,0.00,,,0.00,WUHU21623XXSP,2013-01-29 10:55:00,
2013-01-29 06:00:00,50.9,49.2,29.09,South,180,0.9,10.5,94,0.00,,,0.00,WUHU21623XXSP,2013-01-29 11:00:00,
2013-01-29 06:05:00,50.9,49.2,29.10,WSW,247,5.1,6.0,94,0.00,,,0.00,WUHU21623XXSP,2013-01-29 11:05:00,
2013-01-29 06:10:00,50.9,49.2,29.09,WSW,247,5.1,5.1,94,0.00,,,0.00,WUHU21623XXSP,2013-01-29 11:10:00,
2013-01-29 06:15:00,51.3,49.4,29.09,SSW,202,8.3,8.3,94,0.00,,,0.00,WUHU21623XXSP,2013-01-29 11:15:00,
2013-01-29 06:20:00,51.3,49.5,29.09,South,180,8.7,8.7,94,0.00,,,0.00,WUHU21623XXSP,2013-01-29 11:20:00,
2013-01-29 06:25:00,51.4,49.7,29.09,South,180,5.1,11.4,94,0.00,,,0.00,WUHU21623XXSP,2013-01-29 11:25:00,
2013-01-29 06:30:00,51.4,49.7,29.09,WSW,247,0.0,11.4,94,0.00,,,0.00,WUHU21623XXSP,2013-01-29 11:30:00,
2013-01-29 06:35:00,51.4,49.7,29.09,SW,225,15.2,15.2,94,0.00,,,0.00,WUHU21623XXSP,2013-01-29 11:35:00,
2013-01-29 06:40:00,51.4,49.7,29.09,WSW,247,2.5,15.2,94,0.00,,,0.00,WUHU21623XXSP,2013-01-29 11:40:00,
2013-01-29 06:45:00,51.4,49.7,29.09,SSW,202,7.8,8.9,94,0.00,,,0.00,WUHU21623XXSP,2013-01-29 11:45:00,
2013-01-29 06:50:00,51.4,49.7,29.09,SW,225,8.3,10.1,94,0.00,,,0.00,WUHU21623XXSP,2013-01-29 11:50:00,
2013-01-29 06:55:00,51.4,49.7,29.09,SW,225,11.9,11.9,94,0.00,,,0.00,WUHU21623XXSP,2013-01-29 11:55:00,
2013-01-29 07:00:00,51.4,49.7,29.08,NNE,22,0.0,11.9,94,0.00,,,0.00,WUHU21623XXSP,2013-01-29 12:00:00,
2013-01-29 07:05:00,51.4,49.7,29.08,South,180,6.5,9.6,94,0.00,,,0.00,WUHU21623XXSP,2013-01-29 12:05:00,
2013-01-29 07:10:00,51.4,49.7,29.08,South,180,0.0,9.6,94,0.00,,,0.00,WUHU21623XXSP,2013-01-29 12:10:00,
2013-01-29 07:15:00,51.6,49.9,29.08,South,180,1.3,6.5,94,0.00,,,0.00,WUHU21623XXSP,2013-01-29 12:15:00,
2013-01-29 07:20:00,51.6,49.9,29.08,WSW,247,8.1,8.1,94,0.00,,,0.00,WUHU21623XXSP,2013-01-29 12:20:00,
2013-01-29 07:25:00,51.6,49.9,29.09,SSE,157,0.0,8.1,94,0.00,,,0.00,WUHU21623XXSP,2013-01-29 12:25:00,
2013-01-29 07:31:00,51.6,49.9,29.09,WSW,247,6.7,6.7,94,0.00,,,0.00,WUHU21623XXSP,2013-01-29 12:31:00,
2013-01-29 07:36:00,52.0,50.3,29.08,South,180,4.3,6.7,94,0.00,,,0.00,WUHU21623XXSP,2013-01-29 12:36:00,
2013-01-29 07:41:00,52.0,50.3,29.08,South,180,0.0,4.3,94,0.00,,,0.00,WUHU21623XXSP,2013-01-29 12:41:00,
2013-01-29 07:46:00,52.2,50.3,29.09,South,180,0.0,4.3,94,0.00,,,0.00,WUHU21623XXSP,2013-01-29 12:46:00,
2013-01-29 07:51:00,52.3,50.4,29.08,South,180,3.4,6.9,94,0.00,,,0.00,WUHU21623XXSP,2013-01-29 12:51:00,
2013-01-29 07:56:00,52.5,50.8,29.08,SSW,202,4.3,6.9,94,0.00,,,0.00,WUHU21623XXSP,2013-01-29 12:56:00,
2013-01-29 08:01:00,52.5,50.8,29.07,South,180,7.6,7.6,94,0.00,,,0.00,WUHU21623XXSP,2013-01-29 13:01:00,
2013-01-29 08:06:00,52.7,51.0,29.07,South,180,7.4,7.6,94,0.00,,,0.00,WUHU21623XXSP,2013-01-29 13:06:00,
2013-01-29 08:11:00,52.7,51.0,29.07,SSE,157,5.8,8.3,94,0.00,,,0.00,WUHU21623XXSP,2013-01-29 13:11:00,
2013-01-29 08:16:00,52.5,50.8,29.07,WSW,247,4.0,8.3,94,0.00,,,0.00,WUHU21623XXSP,2013-01-29 13:16:00,
2013-01-29 08:21:00,52.7,50.8,29.07,WSW,247,3.6,6.5,94,0.00,,,0.00,WUHU21623XXSP,2013-01-29 13:21:00,
2013-01-29 08:26:00,52.9,51.2,29.07,West,270,4.5,16.3,94,0.00,,,0.00,WUHU21623XXSP,2013-01-29 13:26:00,
2013-01-29 08:31:00,53.2,51.5,29.07,SSE,157,5.1,16.3,94,0.00,,,0.00,WUHU21623XXSP,2013-01-29 13:31:00,
2013-01-29 08:36:00,53.2,51.5,29.07,SSW,202,6.3,6.3,94,0.00,,,0.00,WUHU21623XXSP,2013-01-29 13:36:00,
2013-01-29 08:41:00,53.4,51.7,29.07,South,180,4.3,6.3,94,0.00,,,0.00,WUHU21623XXSP,2013-01-29 13:41:00,
2013-01-29 08:46:00,53.4,51.7,29.06,SSW,202,11.4,11.4,94,0.00,,,0.00,WUHU21623XXSP,2013-01-29 13:46:00,
2013-01-29 08:51:00,53.8,52.1,29.06,WSW,247,6.5,11.4,94,0.00,,,0.00,WUHU21623XXSP,2013-01-29 13:51:00,
2013-01-29 08:56:00,53.8,52.1,29.06,South,180,4.7,6.5,94,0.00,,,0.00,WUHU21623XXSP,2013-01-29 13:56:00,
2013-01-29 09:01:00,54.0,52.2,29.06,SSE,157,3.4,6.5,94,0.00,,,0.00,WUHU21623XXSP,2013-01-29 14:01:00,
2013-01-29 09:06:00,54.0,52.2,29.06,WSW,247,6.9,6.9,94,0.00,,,0.00,WUHU21623XXSP,2013-01-29 14:06:00,
2013-01-29 09:11:00,54.1,52.4,29.06,South,180,8.5,11.2,94,0.00,,,0.00,WUHU21623XXSP,2013-01-29 14:11:00,
2013-01-29 09:16:00,54.1,52.4,29.05,WSW,247,6.7,11.2,94,0.00,,,0.00,WUHU21623XXSP,2013-01-29 14:16:00,
2013-01-29 09:21:00,54.1,52.4,29.06,SSW,202,3.6,6.7,94,0.00,,,0.00,WUHU21623XXSP,2013-01-29 14:21:00,
2013-01-29 09:26:00,54.3,52.6,29.06,SSE,157,7.6,24.4,94,0.00,,,0.00,WUHU21623XXSP,2013-01-29 14:26:00,
2013-01-29 09:31:00,54.1,52.4,29.05,WSW,247,5.8,9.4,94,0.00,,,0.00,WUHU21623XXSP,2013-01-29 14:31:00,
2013-01-29 09:36:00,54.3,52.6,29.07,SW,225,9.2,9.2,94,0.00,,,0.00,WUHU21623XXSP,2013-01-29 14:36:00,
2013-01-29 09:41:00,54.3,52.6,29.07,WSW,247,0.0,9.2,94,0.00,,,0.00,WUHU21623XXSP,2013-01-29 14:41:00,
2013-01-29 09:46:00,54.3,52.6,29.07,SSW,202,9.8,9.8,94,0.00,,,0.00,WUHU21623XXSP,2013-01-29 14:46:00,
2013-01-29 09:51:00,54.3,52.6,29.07,SE,135,0.0,9.8,94,0.00,,,0.00,WUHU21623XXSP,2013-01-29 14:51:00,
2013-01-29 09:56:00,54.3,52.6,29.07,SE,135,0.0,3.6,94,0.00,,,0.00,WUHU21623XXSP,2013-01-29 14:56:00,
2013-01-29 10:01:00,54.5,53.1,29.06,SSW,202,18.1,18.1,95,0.00,,,0.00,WUHU21623XXSP,2013-01-29 15:01:00,
2013-01-29 10:06:00,54.7,53.2,29.06,SSW,202,0.0,18.1,95,0.00,,,0.00,WUHU21623XXSP,2013-01-29 15:06:00,
2013-01-29 10:11:00,54.9,53.1,29.06,SSE,157,9.6,9.6,94,0.00,,,0.00,WUHU21623XXSP,2013-01-29 15:11:00,
2013-01-29 10:16:00,55.0,53.1,29.06,SSE,157,9.6,9.6,94,0.00,,,0.00,WUHU21623XXSP,2013-01-29 15:16:00,
2013-01-29 10:21:00,55.2,53.5,29.07,ESE,112,0.0,9.6,94,0.00,,,0.00,WUHU21623XXSP,2013-01-29 15:21:00,
2013-01-29 10:26:00,55.2,53.5,29.07,SSW,202,3.1,7.2,94,0.00,,,0.00,WUHU21623XXSP,2013-01-29 15:26:00,
2013-01-29 10:31:00,55.4,53.7,29.07,South,180,4.3,8.9,94,0.00,,,0.00,WUHU21623XXSP,2013-01-29 15:31:00,
2013-01-29 10:36:00,55.8,54.0,29.06,SSW,202,11.4,11.4,94,0.00,,,0.00,WUHU21623XXSP,2013-01-29 15:36:00,
2013-01-29 10:41:00,55.9,54.2,29.06,WSW,247,0.0,11.4,94,0.00,,,0.00,WUHU21623XXSP,2013-01-29 15:41:00,
2013-01-29 10:46:00,56.3,54.6,29.06,SW,225,4.7,6.3,94,0.00,,,0.00,WUHU21623XXSP,2013-01-29 15:46:00,
2013-01-29 10:51:00,56.5,54.8,29.06,South,180,6.0,6.3,94,0.00,,,0.00,WUHU21623XXSP,2013-01-29 15:51:00,
2013-01-29 10:56:00,56.8,55.1,29.06,SSW,202,13.4,13.4,94,0.00,,,0.00,WUHU21623XXSP,2013-01-29 15:56:00,
2013-01-29 11:01:00,56.8,55.1,29.06,South,180,11.2,13.4,94,0.00,,,0.00,WUHU21623XXSP,2013-01-29 16:01:00,
2013-01-29 11:06:00,57.0,55.3,29.06,SW,225,0.9,11.2,94,0.00,,,0.00,WUHU21623XXSP,2013-01-29 16:06:00,
2013-01-29 11:11:00,57.0,55.3,29.06,SW,225,0.9,11.2,94,0.00,,,0.00,WUHU21623XXSP,2013-01-29 16:11:00,
2013-01-29 11:17:00,57.0,55.3,29.06,SW,225,8.1,8.9,94,0.00,,,0.00,WUHU21623XXSP,2013-01-29 16:17:00,
2013-01-29 11:22:00,57.0,55.3,29.06,SSW,202,0.0,8.9,94,0.00,,,0.00,WUHU21623XXSP,2013-01-29 16:22:00,
2013-01-29 11:27:00,57.0,55.3,29.06,SE,135,3.8,6.3,94,0.00,,,0.00,WUHU21623XXSP,2013-01-29 16:27:00,
2013-01-29 11:32:00,57.0,55.3,29.05,South,180,6.9,8.9,94,0.00,,,0.00,WUHU21623XXSP,2013-01-29 16:32:00,
2013-01-29 11:37:00,57.0,55.3,29.06,SSE,157,6.3,8.9,94,0.00,,,0.00,WUHU21623XXSP,2013-01-29 16:37:00,
2013-01-29 11:42:00,57.0,55.3,29.05,SSE,157,6.3,6.3,94,0.00,,,0.00,WUHU21623XXSP,2013-01-29 16:42:00,
2013-01-29 11:47:00,57.0,55.3,29.05,SW,225,4.0,8.1,94,0.00,,,0.00,WUHU21623XXSP,2013-01-29 16:47:00,
2013-01-29 11:52:00,57.0,55.3,29.05,SW,225,4.0,8.1,94,0.00,,,0.00,WUHU21623XXSP,2013-01-29 16:52:00,
2013-01-29 11:57:00,57.2,55.3,29.04,South,180,3.6,4.0,94,0.00,,,0.00,WUHU21623XXSP,2013-01-29 16:57:00,
2013-01-29 12:02:00,57.4,55.4,29.04,SW,225,14.3,14.3,93,0.00,,,0.00,WUHU21623XXSP,2013-01-29 17:02:00,
2013-01-29 12:07:00,57.4,55.4,29.04,SW,225,3.6,14.3,93,0.00,,,0.00,WUHU21623XXSP,2013-01-29 17:07:00,
2013-01-29 12:12:00,57.4,55.4,29.05,SW,225,7.2,7.2,93,0.00,,,0.00,WUHU21623XXSP,2013-01-29 17:12:00,
2013-01-29 12:17:00,57.6,55.4,29.04,NNW,337,3.6,8.9,93,0.00,,,0.00,WUHU21623XXSP,2013-01-29 17:17:00,
2013-01-29 12:22:00,57.4,55.1,29.04,South,180,6.9,8.9,92,0.00,,,0.00,WUHU21623XXSP,2013-01-29 17:22:00,
2013-01-29 12:27:00,57.4,55.1,29.04,WSW,247,5.8,6.9,92,0.00,,,0.00,WUHU21623XXSP,2013-01-29 17:27:00,
2013-01-29 12:32:00,57.4,55.1,29.04,SSE,157,8.1,8.1,92,0.00,,,0.00,WUHU21623XXSP,2013-01-29 17:32:00,
2013-01-29 12:37:00,57.4,54.8,29.04,West,270,0.0,8.1,91,0.00,,,0.00,WUHU21623XXSP,2013-01-29 17:37:00,
2013-01-29 12:42:00,57.4,54.8,29.03,NE,45,7.8,7.8,91,0.00,,,0.00,WUHU21623XXSP,2013-01-29 17:42:00,
2013-01-29 12:47:00,57.4,54.8,29.03,SSW,202,9.6,13.0,91,0.00,,,0.00,WUHU21623XXSP,2013-01-29 17:47:00,
2013-01-29 12:52:00,57.4,54.8,29.03,SSW,202,13.6,13.6,91,0.00,,,0.00,WUHU21623XXSP,2013-01-29 17:52:00,
2013-01-29 12:57:00,57.6,55.0,29.02,SSE,157,4.5,13.6,91,0.00,,,0.00,WUHU21623XXSP,2013-01-29 17:57:00,
2013-01-29 13:02:00,57.7,54.9,29.02,SSW,202,9.4,9.4,90,0.00,,,0.00,WUHU21623XXSP,2013-01-29 18:02:00,
2013-01-29 13:07:00,57.7,54.9,29.02,SSW,202,9.4,9.4,90,0.00,,,0.00,WUHU21623XXSP,2013-01-29 18:07:00,
2013-01-29 13:12:00,57.9,55.0,29.02,SW,225,7.4,9.4,90,0.00,,,0.00,WUHU21623XXSP,2013-01-29 18:12:00,
2013-01-29 13:17:00,57.9,55.0,29.01,WSW,247,11.4,11.4,90,0.00,,,0.00,WUHU21623XXSP,2013-01-29 18:17:00,
2013-01-29 13:22:00,58.1,55.2,29.00,South,180,11.6,11.6,90,0.00,,,0.00,WUHU21623XXSP,2013-01-29 18:22:00,
2013-01-29 13:27:00,58.1,54.9,29.00,SSW,202,4.3,11.6,89,0.00,,,0.00,WUHU21623XXSP,2013-01-29 18:27:00,
2013-01-29 13:32:00,58.3,55.1,29.00,SW,225,8.3,11.0,89,0.00,,,0.00,WUHU21623XXSP,2013-01-29 18:32:00,
2013-01-29 13:37:00,58.3,55.3,29.00,SSW,202,8.1,11.0,89,0.00,,,0.00,WUHU21623XXSP,2013-01-29 18:37:00,
2013-01-29 13:42:00,58.5,55.3,29.00,SSW,202,2.5,8.1,89,0.00,,,0.00,WUHU21623XXSP,2013-01-29 18:42:00,
2013-01-29 13:47:00,58.5,55.1,28.99,SSE,157,17.9,17.9,89,0.00,,,0.00,WUHU21623XXSP,2013-01-29 18:47:00,
2013-01-29 13:52:00,58.5,55.3,28.99,SSW,202,5.8,17.9,89,0.00,,,0.00,WUHU21623XXSP,2013-01-29 18:52:00,
2013-01-29 13:57:00,58.6,55.4,28.99,SSW,202,5.1,10.7,89,0.00,,,0.00,WUHU21623XXSP,2013-01-29 18:57:00,
2013-01-29 14:02:00,58.6,55.4,28.99,WSW,247,6.0,10.7,89,0.00,,,0.00,WUHU21623XXSP,2013-01-29 19:02:00,
2013-01-29 14:07:00,58.6,55.1,28.99,WSW,247,8.3,8.3,88,0.00,,,0.00,WUHU21623XXSP,2013-01-29 19:07:00,
2013-01-29 14:12:00,58.6,55.1,28.98,SSE,157,9.6,9.6,88,0.00,,,0.00,WUHU21623XXSP,2013-01-29 19:12:00,
2013-01-29 14:17:00,58.6,55.1,28.98,SSE,157,5.1,9.6,88,0.00,,,0.00,WUHU21623XXSP,2013-01-29 19:17:00,
2013-01-29 14:22:00,58.6,55.1,28.97,SSW,202,0.0,6.7,88,0.00,,,0.00,WUHU21623XXSP,2013-01-29 19:22:00,
2013-01-29 14:27:00,58.3,54.9,28.97,SSW,202,5.1,11.9,88,0.00,,,0.00,WUHU21623XXSP,2013-01-29 19:27:00,
2013-01-29 14:32:00,58.3,54.8,28.97,South,180,7.8,11.9,88,0.00,,,0.00,WUHU21623XXSP,2013-01-29 19:32:00,
2013-01-29 14:37:00,58.3,54.8,28.97,South,180,7.8,7.8,88,0.00,,,0.00,WUHU21623XXSP,2013-01-29 19:37:00,
2013-01-29 14:42:00,57.9,54.4,28.97,SSE,157,4.3,7.8,88,0.00,,,0.00,WUHU21623XXSP,2013-01-29 19:42:00,
2013-01-29 14:47:00,57.9,54.4,28.96,SW,225,6.7,6.7,88,0.00,,,0.00,WUHU21623XXSP,2013-01-29 19:47:00,
2013-01-29 14:52:00,57.9,54.4,28.96,SSW,202,9.2,9.2,88,0.00,,,0.00,WUHU21623XXSP,2013-01-29 19:52:00,
2013-01-29 14:57:00,57.9,54.4,28.96,SSE,157,4.0,13.0,88,0.00,,,0.00,WUHU21623XXSP,2013-01-29 19:57:00,
2013-01-29 14:58:00,57.9,54.4,28.96,SSE,157,4.0,13.0,88,0.00,,,0.00,WUHU21623XXSP,2013-01-29 19:58:00,
2013-01-29 15:03:00,57.9,54.4,28.95,South,180,3.8,13.0,88,0.00,,,0.00,WUHU21623XXSP,2013-01-29 20:03:00,
2013-01-29 15:08:00,57.9,54.4,28.95,South,180,4.3,12.1,88,0.00,,,0.00,WUHU21623XXSP,2013-01-29 20:08:00,
2013-01-29 15:13:00,57.9,54.4,28.95,SSE,157,5.6,5.6,88,0.00,,,0.00,WUHU21623XXSP,2013-01-29 20:13:00,
2013-01-29 15:18:00,57.9,54.4,28.95,SSE,157,3.4,6.3,88,0.00,,,0.00,WUHU21623XXSP,2013-01-29 20:18:00,
2013-01-29 15:23:00,57.9,54.4,28.95,SSW,202,4.7,6.7,88,0.00,,,0.00,WUHU21623XXSP,2013-01-29 20:23:00,
2013-01-29 15:28:00,57.7,54.4,28.95,South,180,2.2,6.7,88,0.00,,,0.00,WUHU21623XXSP,2013-01-29 20:28:00,
2013-01-29 15:33:00,57.7,54.2,28.96,South,180,0.0,2.2,88,0.00,,,0.00,WUHU21623XXSP,2013-01-29 20:33:00,
2013-01-29 15:38:00,57.7,54.2,28.95,South,180,0.0,2.2,88,0.00,,,0.00,WUHU21623XXSP,2013-01-29 20:38:00,
2013-01-29 15:43:00,57.7,54.2,28.95,WSW,247,2.0,2.0,88,0.00,,,0.00,WUHU21623XXSP,2013-01-29 20:43:00,
2013-01-29 15:48:00,57.6,54.0,28.95,South,180,0.0,2.0,88,0.00,,,0.00,WUHU21623XXSP,2013-01-29 20:48:00,
2013-01-29 15:53:00,57.4,53.9,28.95,SSW,202,0.0,5.1,88,0.00,,,0.00,WUHU21623XXSP,2013-01-29 20:53:00,
2013-01-29 15:58:00,57.4,53.9,28.95,SW,225,3.8,5.1,88,0.00,,,0.00,WUHU21623XXSP,2013-01-29 20:58:00,
2013-01-29 16:03:00,57.4,53.9,28.94,South,180,5.6,5.6,88,0.00,,,0.00,WUHU21623XXSP,2013-01-29 21:03:00,
2013-01-29 16:09:00,57.4,53.9,28.94,ENE,67,2.2,5.6,88,0.00,,,0.00,WUHU21623XXSP,2013-01-29 21:09:00,
2013-01-29 16:14:00,57.4,53.9,28.94,SE,135,0.0,3.6,88,0.00,,,0.00,WUHU21623XXSP,2013-01-29 21:14:00,
2013-01-29 16:19:00,56.8,53.5,28.93,SE,135,0.0,0.0,88,0.00,,,0.00,WUHU21623XXSP,2013-01-29 21:19:00,
2013-01-29 16:24:00,56.5,53.3,28.93,SE,135,0.0,0.0,88,0.00,,,0.00,WUHU21623XXSP,2013-01-29 21:24:00,
2013-01-29 16:29:00,56.5,53.0,28.93,SE,135,0.0,0.0,88,0.00,,,0.00,WUHU21623XXSP,2013-01-29 21:29:00,
2013-01-29 16:34:00,56.1,52.9,28.92,SE,135,5.1,5.1,89,0.00,,,0.00,WUHU21623XXSP,2013-01-29 21:34:00,
2013-01-29 16:39:00,56.1,52.9,28.92,SSE,157,1.6,5.1,89,0.00,,,0.00,WUHU21623XXSP,2013-01-29 21:39:00,
2013-01-29 16:44:00,56.1,52.9,28.93,SE,135,0.0,2.9,89,0.00,,,0.00,WUHU21623XXSP,2013-01-29 21:44:00,
2013-01-29 16:49:00,55.9,52.7,28.92,SSE,157,8.1,8.1,89,0.00,,,0.00,WUHU21623XXSP,2013-01-29 21:49:00,
2013-01-29 16:54:00,55.9,53.1,28.92,SSE,157,2.0,8.1,90,0.00,,,0.00,WUHU21623XXSP,2013-01-29 21:54:00,
2013-01-29 16:59:00,55.9,52.7,28.92,SSE,157,4.5,8.1,89,0.00,,,0.00,WUHU21623XXSP,2013-01-29 21:59:00,
2013-01-29 17:04:00,55.9,53.1,28.91,SSW,202,2.5,4.5,90,0.00,,,0.00,WUHU21623XXSP,2013-01-29 22:04:00,
2013-01-29 17:09:00,55.8,52.9,28.92,South,180,0.0,4.5,90,0.00,,,0.00,WUHU21623XXSP,2013-01-29 22:09:00,
2013-01-29 17:14:00,55.6,52.7,28.91,South,180,2.5,3.8,90,0.00,,,0.00,WUHU21623XXSP,2013-01-29 22:14:00,
2013-01-29 17:19:00,55.8,52.9,28.91,SE,135,2.0,2.5,90,0.00,,,0.00,WUHU21623XXSP,2013-01-29 22:19:00,
2013-01-29 17:24:00,55.8,52.9,28.92,SSE,157,3.1,3.1,90,0.00,,,0.00,WUHU21623XXSP,2013-01-29 22:24:00,
2013-01-29 17:29:00,55.8,52.9,28.91,SE,135,2.9,3.1,90,0.00,,,0.00,WUHU21623XXSP,2013-01-29 22:29:00,
2013-01-29 17:34:00,55.8,52.9,28.91,SE,135,1.1,3.8,90,0.00,,,0.00,WUHU21623XXSP,2013-01-29 22:34:00,
2013-01-29 17:39:00,55.8,52.7,28.91,SSE,157,0.7,3.8,90,0.00,,,0.00,WUHU21623XXSP,2013-01-29 22:39:00,
2013-01-29 17:44:00,55.6,52.7,28.91,SSE,157,4.3,4.7,90,0.00,,,0.00,WUHU21623XXSP,2013-01-29 22:44:00,
2013-01-29 17:49:00,55.6,52.7,28.91,SSW,202,2.5,4.7,90,0.00,,,0.00,WUHU21623XXSP,2013-01-29 22:49:00,
2013-01-29 17:54:00,55.6,52.7,28.90,SSE,157,2.2,2.5,90,0.00,,,0.00,WUHU21623XXSP,2013-01-29 22:54:00,
2013-01-29 17:59:00,55.4,52.5,28.91,SSW,202,0.0,2.2,90,0.00,,,0.00,WUHU21623XXSP,2013-01-29 22:59:00,
2013-01-29 18:04:00,55.4,52.5,28.91,SSE,157,4.7,4.7,90,0.00,,,0.00,WUHU21623XXSP,2013-01-29 23:04:00,
2013-01-29 18:09:00,55.2,52.3,28.91,SSE,157,1.8,4.7,90,0.00,,,0.00,WUHU21623XXSP,2013-01-29 23:09:00,
2013-01-29 18:14:00,55.2,52.3,28.90,South,180,1.8,2.2,90,0.00,,,0.00,WUHU21623XXSP,2013-01-29 23:14:00,
2013-01-29 18:19:00,55.2,52.3,28.90,SSE,157,2.2,2.2,90,0.00,,,0.00,WUHU21623XXSP,2013-01-29 23:19:00,
2013-01-29 18:24:00,55.0,52.2,28.90,SSE,157,0.0,2.2,90,0.00,,,0.00,WUHU21623XXSP,2013-01-29 23:24:00,
2013-01-29 18:29:00,54.9,52.2,28.90,ESE,112,2.7,2.7,90,0.00,,,0.00,WUHU21623XXSP,2013-01-29 23:29:00,
2013-01-29 18:34:00,54.7,51.8,28.90,SSE,157,2.5,2.7,90,0.00,,,0.00,WUHU21623XXSP,2013-01-29 23:34:00,
2013-01-29 18:39:00,54.7,51.8,28.90,SE,135,2.9,3.1,90,0.00,,,0.00,WUHU21623XXSP,2013-01-29 23:39:00,
2013-01-29 18:44:00,54.7,51.8,28.90,South,180,2.0,3.1,90,0.00,,,0.00,WUHU21623XXSP,2013-01-29 23:44:00,
2013-01-29 18:49:00,54.5,51.6,28.89,SSE,157,2.5,2.9,90,0.00,,,0.00,WUHU21623XXSP,2013-01-29 23:49:00,
2013-01-29 18:54:00,54.7,51.8,28.89,SE,135,0.0,2.5,90,0.00,,,0.00,WUHU21623XXSP,2013-01-29 23:54:00,
2013-01-29 18:59:00,54.7,51.8,28.89,SE,135,4.0,4.0,90,0.00,,,0.00,WUHU21623XXSP,2013-01-29 23:59:00,
2013-01-29 19:04:00,54.5,51.6,28.88,SSE,157,3.1,4.0,90,0.00,,,0.00,WUHU21623XXSP,2013-01-30 00:04:00,
2013-01-29 19:09:00,54.3,51.6,28.88,SE,135,3.4,4.0,90,0.00,,,0.00,WUHU21623XXSP,2013-01-30 00:09:00,
2013-01-29 19:14:00,54.3,51.4,28.87,South,180,0.0,3.4,90,0.00,,,0.00,WUHU21623XXSP,2013-01-30 00:14:00,
2013-01-29 19:19:00,54.3,51.4,28.87,NE,45,4.0,4.0,90,0.00,,,0.00,WUHU21623XXSP,2013-01-30 00:19:00,
2013-01-29 19:24:00,54.1,51.3,28.87,SE,135,2.0,4.0,90,0.00,,,0.00,WUHU21623XXSP,2013-01-30 00:24:00,
2013-01-29 19:29:00,54.1,51.3,28.86,NNE,22,0.0,3.1,90,0.00,,,0.00,WUHU21623XXSP,2013-01-30 00:29:00,
2013-01-29 19:34:00,54.0,51.4,28.86,SSW,202,2.5,2.5,91,0.00,,,0.00,WUHU21623XXSP,2013-01-30 00:34:00,
2013-01-29 19:39:00,54.1,51.5,28.86,SSE,157,5.4,5.4,91,0.00,,,0.00,WUHU21623XXSP,2013-01-30 00:39:00,
2013-01-29 19:45:00,54.1,51.5,28.85,South,180,5.6,5.6,91,0.00,,,0.00,WUHU21623XXSP,2013-01-30 00:45:00,
2013-01-29 19:50:00,54.1,51.5,28.84,East,90,4.7,5.6,91,0.00,,,0.00,WUHU21623XXSP,2013-01-30 00:50:00,
2013-01-29 19:55:00,54.3,51.7,28.84,ESE,112,3.1,4.7,91,0.00,,,0.00,WUHU21623XXSP,2013-01-30 00:55:00,
2013-01-29 20:00:00,54.3,51.7,28.83,SSW,202,4.0,4.7,91,0.00,,,0.00,WUHU21623XXSP,2013-01-30 01:00:00,
2013-01-29 20:05:00,54.5,51.9,28.83,SSW,202,4.0,4.0,91,0.00,,,0.00,WUHU21623XXSP,2013-01-30 01:05:00,
2013-01-29 20:10:00,54.5,51.9,28.83,South,180,5.8,5.8,91,0.00,,,0.00,WUHU21623XXSP,2013-01-30 01:10:00,
2013-01-29 20:15:00,54.7,52.1,28.83,SE,135,2.5,7.4,91,0.00,,,0.00,WUHU21623XXSP,2013-01-30 01:15:00,
2013-01-29 20:20:00,54.9,52.3,28.83,SSE,157,4.5,7.4,91,0.00,,,0.00,WUHU21623XXSP,2013-01-30 01:20:00,
2013-01-29 20:25:00,55.0,52.4,28.82,South,180,2.9,7.2,91,0.00,,,0.00,WUHU21623XXSP,2013-01-30 01:25:00,
2013-01-29 20:30:00,55.0,52.4,28.82,South,180,9.2,9.2,91,0.00,,,0.00,WUHU21623XXSP,2013-01-30 01:30:00,
2013-01-29 20:35:00,55.2,52.6,28.82,SSE,157,4.5,9.2,91,0.00,,,0.00,WUHU21623XXSP,2013-01-30 01:35:00,
2013-01-29 20:40:00,55.2,52.6,28.81,SSE,157,7.6,9.2,91,0.00,,,0.00,WUHU21623XXSP,2013-01-30 01:40:00,
2013-01-29 20:45:00,55.2,52.6,28.81,SSE,157,5.4,7.6,91,0.00,,,0.00,WUHU21623XXSP,2013-01-30 01:45:00,
2013-01-29 20:50:00,55.2,52.6,28.81,South,180,4.5,5.8,91,0.00,,,0.00,WUHU21623XXSP,2013-01-30 01:50:00,
2013-01-29 20:55:00,55.2,52.6,28.80,South,180,6.5,6.5,91,0.00,,,0.00,WUHU21623XXSP,2013-01-30 01:55:00,
2013-01-29 21:00:00,55.2,52.6,28.80,ESE,112,1.3,6.5,91,0.00,,,0.00,WUHU21623XXSP,2013-01-30 02:00:00,
2013-01-29 21:05:00,55.2,52.6,28.80,SSW,202,5.6,10.7,91,0.00,,,0.00,WUHU21623XXSP,2013-01-30 02:05:00,
2013-01-29 21:10:00,55.2,52.6,28.80,South,180,4.0,10.7,91,0.00,,,0.00,WUHU21623XXSP,2013-01-30 02:10:00,
2013-01-29 21:15:00,55.2,52.6,28.79,South,180,3.8,5.8,91,0.00,,,0.00,WUHU21623XXSP,2013-01-30 02:15:00,
2013-01-29 21:20:00,55.2,52.6,28.79,South,180,3.8,3.8,91,0.00,,,0.00,WUHU21623XXSP,2013-01-30 02:20:00,
2013-01-29 21:25:00,55.2,52.6,28.78,SSW,202,0.9,3.8,91,0.00,,,0.00,WUHU21623XXSP,2013-01-30 02:25:00,
2013-01-29 21:30:00,55.2,52.6,28.78,South,180,5.1,5.1,91,0.00,,,0.00,WUHU21623XXSP,2013-01-30 02:30:00,
2013-01-29 21:35:00,55.2,52.6,28.78,SSE,157,4.3,5.1,91,0.00,,,0.00,WUHU21623XXSP,2013-01-30 02:35:00,
2013-01-29 21:40:00,55.4,52.6,28.78,SSE,157,4.3,5.1,91,0.00,,,0.00,WUHU21623XXSP,2013-01-30 02:40:00,
2013-01-29 21:45:00,55.6,53.0,28.77,South,180,6.7,6.7,91,0.00,,,0.00,WUHU21623XXSP,2013-01-30 02:45:00,
2013-01-29 21:50:00,55.6,53.0,28.76,South,180,6.7,6.7,91,0.00,,,0.00,WUHU21623XXSP,2013-01-30 02:50:00,
2013-01-29 21:55:00,55.6,53.0,28.75,South,180,6.7,6.7,91,0.00,,,0.00,WUHU21623XXSP,2013-01-30 02:55:00,
2013-01-29 22:00:00,55.6,53.3,28.75,SSE,157,4.0,6.7,92,0.00,,,0.00,WUHU21623XXSP,2013-01-30 03:00:00,
2013-01-29 22:05:00,55.6,53.3,28.74,South,180,4.9,5.1,92,0.00,,,0.00,WUHU21623XXSP,2013-01-30 03:05:00,
2013-01-29 22:10:00,55.6,53.3,28.74,SSE,157,4.3,4.9,92,0.00,,,0.00,WUHU21623XXSP,2013-01-30 03:10:00,
2013-01-29 22:15:00,55.6,53.3,28.74,SSW,202,3.6,4.9,92,0.00,,,0.00,WUHU21623XXSP,2013-01-30 03:15:00,
2013-01-29 22:20:00,55.6,53.3,28.73,SE,135,6.3,6.3,92,0.00,,,0.00,WUHU21623XXSP,2013-01-30 03:20:00,
2013-01-29 22:25:00,55.6,53.3,28.73,SSE,157,4.7,6.3,92,0.00,,,0.00,WUHU21623XXSP,2013-01-30 03:25:00,
2013-01-29 22:30:00,55.6,53.3,28.72,ESE,112,6.5,6.5,92,0.00,,,0.00,WUHU21623XXSP,2013-01-30 03:30:00,
2013-01-29 22:35:00,55.6,53.3,28.72,SE,135,2.9,6.5,92,0.00,,,0.00,WUHU21623XXSP,2013-01-30 03:35:00,
2013-01-29 22:40:00,55.6,53.3,28.71,SSE,157,7.4,7.4,92,0.00,,,0.00,WUHU21623XXSP,2013-01-30 03:40:00,
2013-01-29 22:45:00,55.6,53.3,28.70,SE,135,5.1,7.4,92,0.00,,,0.00,WUHU21623XXSP,2013-01-30 03:45:00,
2013-01-29 22:50:00,55.6,53.3,28.69,ENE,67,2.5,5.1,92,0.00,,,0.00,WUHU21623XXSP,2013-01-30 03:50:00,
2013-01-29 22:55:00,55.4,53.1,28.68,SE,135,3.1,3.8,92,0.00,,,0.00,WUHU21623XXSP,2013-01-30 03:55:00,
2013-01-29 23:00:00,55.4,53.3,28.67,SE,135,6.0,6.0,92,0.00,,,0.00,WUHU21623XXSP,2013-01-30 04:00:00,
2013-01-29 23:05:00,55.4,53.1,28.67,West,270,4.5,6.0,92,0.00,,,0.00,WUHU21623XXSP,2013-01-30 04:05:00,
2013-01-29 23:10:00,55.6,53.3,28.67,SSE,157,4.5,6.0,92,0.00,,,0.00,WUHU21623XXSP,2013-01-30 04:10:00,
2013-01-29 23:15:00,55.6,53.3,28.66,SSE,157,4.5,4.5,92,0.00,,,0.00,WUHU21623XXSP,2013-01-30 04:15:00,
2013-01-29 23:20:00,55.8,53.5,28.66,SSE,157,5.1,5.1,92,0.00,,,0.00,WUHU21623XXSP,2013-01-30 04:20:00,
2013-01-29 23:25:00,55.8,53.5,28.66,SSE,157,2.9,5.1,92,0.00,,,0.00,WUHU21623XXSP,2013-01-30 04:25:00,
2013-01-29 23:30:00,55.9,53.6,28.66,SSE,157,8.1,8.1,92,0.00,,,0.00,WUHU21623XXSP,2013-01-30 04:30:00,
2013-01-29 23:35:00,55.9,53.6,28.66,ENE,67,5.8,8.1,92,0.00,,,0.00,WUHU21623XXSP,2013-01-30 04:35:00,
2013-01-29 23:40:00,55.9,53.6,28.65,ENE,67,5.8,8.1,92,0.00,,,0.00,WUHU21623XXSP,2013-01-30 04:40:00,
2013-01-29 23:45:00,55.9,53.6,28.64,SSE,157,5.6,5.8,92,0.00,,,0.00,WUHU21623XXSP,2013-01-30 04:45:00,
2013-01-29 23:50:00,56.5,54.2,28.64,South,180,4.5,5.8,92,0.00,,,0.00,WUHU21623XXSP,2013-01-30 04:50:00,
2013-01-29 23:55:00,56.5,54.2,28.63,South,180,4.5,5.6,92,0.00,,,0.00,WUHU21623XXSP,2013-01-30 04:55:00,